User: anonymous   Login
Location: Kaarina
(60.4167°N, 22.4167°E)
Time: 16:12:15
(UTC+03:00)
Language:

ERS-1 Rocket - Orbit

View from above orbital plane
View from above orbital plane
View from above satellite
View from above satellite

Ground track
Ground track

The orbit data is extracted from the following two-line orbital elements,

1 21610U 91050F   19293.80661692  .00000002  00000-0  14543-4 0  9990
2 21610  98.4965   0.0568 0002101 253.3517 241.3870 14.40884122483321
Epoch (UTC): 20 October 2019 19:21:31
Eccentricity: 0.0002101
inclination: 98.4965°
perigee height: 754 km
apogee height: 757 km
right ascension of ascending node: 0.0568°
argument of perigee: 253.3517°
revolutions per day: 14.40884122
mean anomaly at epoch: 241.3870°
orbit number at epoch: 48332

The dashed part of the orbit path shows where the satellite is in the earth's shadow,  

DLR